Regional Weather Roundup
Issued by NWS

Home | Current Version | Previous Version | Text Only | Print | Product List | Glossary On
Versions: 1 2 3 4 5 6 7 8 9 10 11 12 13 14 15 16 17 18 19 20 21 22 23 24 25 26 27 28 29 30 31 32 33 34 35 36 37 38 39 40 41 42 43 44 45 46 47 48 49 50
000
ASUS43 KLSX 170710
RWRMO

WEATHER SUMMARY FOR MISSOURI
NATIONAL WEATHER SERVICE SPRINGFIELD MO
100 AM CST TUE JAN 17 2017

NOTE: "FAIR" INDICATES FEW OR NO CLOUDS BELOW 12,000 FEET WITH NO
       SIGNIFICANT WEATHER AND/OR OBSTRUCTIONS TO VISIBILITY.
       CURRENT SKY AND/OR WEATHER CONDITIONS ARE NOT AVAILABLE FOR
       CHILLICOTHE AND FARMINGTON.

MOZ001>031-035>038-043-044-053-054-170800-
...NORTHERN AND WESTERN MISSOURI...

CITY           SKY/WX    TMP DP  RH WIND       PRES   REMARKS
KANSAS CTY INT DRZL/FOG  34  33  96 NW10      29.94S VSB 1/2 WCI  26
KANSAS C DTWN  CLOUDY    37  35  92 W10       29.97R WCI  30
LEE`S SUMMIT   CLOUDY    37  36  96 W12       29.96R WCI  29
ST JOSEPH      CLOUDY    34  34 100 W8        29.97R WCI  27
CHILLICOTHE      N/A     39  38  96 W8        29.92R
KIRKSVILLE     CLOUDY    41  41 100 W15       29.87S

$$
MOZ066>068-077>081-088>096-101>105-170800-
...SOUTHWEST MISSOURI...

CITY           SKY/WX    TMP DP  RH WIND       PRES   REMARKS
SPRINGFIELD    CLOUDY    42  35  76 W12       29.98S
JOPLIN         CLOUDY    41  37  86 MISG      30.01F
BRANSON        CLEAR     39  36  87 W3        30.01R

$$
MOZ032>034-039>042-045>050-055>058-069>072-170800-
...CENTRAL MISSOURI...

CITY           SKY/WX    TMP DP  RH WIND       PRES   REMARKS
COLUMBIA       CLOUDY    41  38  89 W16       29.95R
JEFFERSON CITY CLOUDY    43  36  76 W13       29.97R
ROLLA          CLOUDY    42  37  82 W17G25    29.93R
SEDALIA        CLOUDY    41  39  93 W9        29.96S FOG
WHITEMAN AFB   CLOUDY    39  39 100 SW12      29.94R
WARRENSBURG    CLOUDY    37  36  93 SW13      29.97R WCI  29
OSAGE BEACH    CLOUDY    42  36  79 W7        29.98S

$$
MOZ051-052-059>065-170800-
...EAST CENTRAL MISSOURI...

CITY           SKY/WX    TMP DP  RH WIND       PRES   REMARKS
ST LOUIS INTL  MOCLDY    51  45  79 W15G22    29.89R
SPIRIT OF STL  CLOUDY    49  46  90 W7        29.90R
ST CHARLES     MOCLDY    50  46  86 W15       29.88R

$$
MOZ072>076-082>087-097>100-106>115-170800-
...SOUTH CENTRAL AND SOUTHEAST MISSOURI...

CITY           SKY/WX    TMP DP  RH WIND       PRES   REMARKS
CAPE GIRARDEAU PTCLDY    60  57  89 SW14      29.90S
FARMINGTON     PTCLDY    55  50  83 W7        29.91R
POPLAR BLUFF   MOCLDY    59  58  96 SW8       29.92S
WEST PLAINS    CLEAR     43  39  86 W10       29.98R

$$



USA.gov is the U.S. government's official web portal to all federal, state and local government web resources and services.